SL-14 DEB, 45288

Orbit data source: Space-Track

SL-14 DEB, 45288 is space debris in LEO originally from a launch on Thu, 15 Aug 1991 UTC launched from the Plesetsk Missile And Space Complex (PKMTR). Debris objects in space refer to the collection of defunct objects orbiting the Earth. Examples of debris include non-operational satellites, rocket bodies, and fragments generated from explosions, collisions, or faulty payload assembly.

Loading next visibility...
Identifier
45288, 1991-056AA
Orbit
LEO
Country
Flag of CISCIS
Related business
Manufacturer
Unknown
Mission
Spacecraft
Bus & Motor
Unknown
Mass
Unknown
Launch date (UTC)
1991-08-15 (34 years ago)
Launch vehicle
Unknown
Launch site
Plesetsk Missile And Space Complex (PKMTR)
Object type
Payload
Rocket body
Debris
Shape & HBR
Unknown shape, 0.1 m
Radar Cross Section
Small (<0.1 m²)

Expand to show TLE details & history
Last TLE update: 21 hours ago

TLE from 21 hours ago
0 SL-14 DEB
1 45288U 91056AA  25350.08318644  .00002347  00000-0  81872-2 0  9991
2 45288  82.6375  11.3008 0218659 305.6090  52.4817 12.88817423272740
Epoch: 2025-12-16T01:59Z
TLE epoch observation values (Epoch: 2025-12-16T01:59:47.308Z)
Latitude
-0.0001°
Longitude
-103.61882°
Altitude
1,209.003 km
Speed
7.297 km/s
True Right ascension
00h 45m 12s
True Declination
0° 00' 00"
Sunlit
Object was in daylight at epoch
Visualization orbit readout
Latitude
Unknown
Longitude
Unknown
Altitude
Unknown
Speed
Unknown
Apparent Right ascension
Unknown
Apparent Declination
Unknown
Sunlit
N/A
Visualization observer readout
Local Sidereal Time
21:40:41
Azimuth
Unknown
Elevation
Unknown
Doppler factor
Unknown
Orbital elements
Apogee altitude
1,471.466 km
Perigee altitude
1,135.534 km
Semi-major axis
7,681.637 km
Eccentricity
0.02187
Inclination
82.6375°
RAAN
11.3008°
Arg. of periapsis
305.609°
True anomaly
54.50228°
Mean anomaly
52.4817°
Eccentric anomaly
53.48864°
Mean motion
3.22376 °/min
Orbital period
111.67 mins
BSTAR
0.0081872
Loading maneuver chart data...
Computing Atmospheric mass density...
Loading historical data...
Loading historical data...
Loading historical data...
Loading historical data...
Loading historical data...
Loading historical data...
Loading historical data...

Documentation

Showing up to 5 results
|